Weather Roundup
Issued by NWS

Home | Current Version | Previous Version | Text Only | Print | Product List | Glossary On
Versions: 1 2 3 4 5 6 7 8 9 10 11 12 13 14 15 16 17 18 19 20 21 22 23 24 25 26 27 28 29 30 31 32 33 34 35 36 37 38 39 40 41 42 43 44 45 46 47 48 49 50
000
NZUS93 KARX 181710
HRRWXR

CURRENT HOURLY OBSERVATIONS ACROSS
MUCH OF THE UPPER MISSISSIPPI VALLEY
NATIONAL WEATHER SERVICE LA CROSSE WI
1200 PM CDT THU SEP 18 2014


...SOUTHEAST MINNESOTA...


CITY           SKY/WX    TMP DP  RH WIND       PRES   REMARKS
ROCHESTER      MOSUNNY   69  54  58 S9        30.11F
ROCHESTER/MAYO FAIR      67  51  57 SE12      30.11S
WINONA         CLOUDY    57  54  88 E9        30.14F
AUSTIN         SUNNY     66  54  63 S7        30.10S
ALBERT LEA     SUNNY     70  54  56 S12G18    30.09F
DODGE CENTER   MOSUNNY   70  54  56 S14       30.10F
PRESTON        MOSUNNY   66  58  76 SE13      30.13S
OWATONNA       SUNNY     70  54  56 SE9       30.09S
FARIBAULT      SUNNY     73  48  40 S9        30.09S
$$

...ELSEWHERE IN MINNESOTA...


CITY           SKY/WX    TMP DP  RH WIND       PRES   REMARKS
MINNEAPOLIS    MOSUNNY   61  53  75 E8        30.10S
INTNL FALLS    CLOUDY    47  41  80 SE12      30.08F
DULUTH         CLOUDY    48  39  71 E13       30.14F
RED WING       PTSUNNY   61  55  82 E9        30.11S
REDWOOD FALLS  SUNNY     70  56  61 S14       30.05S
MANKATO        MOSUNNY   70  52  52 S14       30.07F
WORTHINGTON    SUNNY     70  55  60 S12G20    30.06F
FAIRMONT       SUNNY     68  54  60 S14       30.08S
$$

...SOUTHWEST WISCONSIN...


CITY           SKY/WX    TMP DP  RH WIND       PRES   REMARKS
LA CROSSE      PTSUNNY   60  52  74 E5        30.15F
PRAIRIE DU CHI SUNNY     63  53  68 E6        30.14F
BOSCOBEL       CLOUDY    60  52  74 E6        30.17F
LONE ROCK      CLOUDY    59  51  75 E6        30.18F
PLATTEVILLE    SUNNY     63  54  73 CALM      30.16F
FORT MC COY    CLOUDY    56  51  85 E8        30.18S
VIROQUA        CLOUDY    55  55  99 E7        30.17S
WIS DELLS      CLOUDY    52  48  87 E6        30.19F
$$

...ELSEWHERE IN WISCONSIN...


CITY           SKY/WX    TMP DP  RH WIND       PRES   REMARKS
MILWAUKEE      CLOUDY    57  50  77 N12       30.19S
MADISON        CLOUDY    53  49  86 E6        30.19S
GREEN BAY      CLOUDY    52  43  71 N5        30.22S
EAU CLAIRE     CLOUDY    53  49  86 SE8       30.16R
BLACK RVR FLS  CLOUDY    54  52  94 SE3       30.17F
MEDFORD        CLOUDY    45  44  93 SE5       30.18F
WAUSAU         CLOUDY    47  41  80 S8        30.20S
WIS RAPIDS     CLOUDY    49  45  86 SE6       30.21F
MARSHFIELD     CLOUDY    48  44  86 SE10      30.19S
RICE LAKE      CLOUDY    51  47  86 SE9       30.17R
$$

...NORTHEAST IOWA...


CITY           SKY/WX    TMP DP  RH WIND       PRES   REMARKS
WATERLOO       SUNNY     68  53  58 SE9       30.10F
DUBUQUE        SUNNY     66  53  63 SE7       30.14F
DECORAH        MOSUNNY   66  55  68 VRB7      30.12F
MASON CITY     SUNNY     69  53  56 S12       30.11S
CHARLES CITY   SUNNY     68  52  56 S12       30.11F
OELWEIN        MOSUNNY   70  54  56 SE8G16    30.12F
$$

...ELSEWHERE IN IOWA...


CITY           SKY/WX    TMP DP  RH WIND       PRES   REMARKS
DES MOINES     MOSUNNY   65  56  72 VRB5      30.09S
IOWA CITY      SUNNY     69  54  58 SE12      30.13S
FORT DODGE     SUNNY     68  55  64 SE10      30.09S
MARSHALLTOWN   SUNNY     67  53  61 SE14G21   30.09F
CEDAR RAPIDS   SUNNY     68  55  63 SE12      30.11F
$$

...NORTHERN ILLINOIS...


CITY           SKY/WX    TMP DP  RH WIND       PRES   REMARKS
CHICAGO-OHARE  PTSUNNY   67  54  63 N6        30.14F
DUPAGE         PTSUNNY   68  55  63 NE7       30.15S
CHICAGO-MIDWAY MOSUNNY   70  56  61 NE8       30.14F
MOLINE         SUNNY     70  53  54 E12       30.11F
ROCKFORD       MOSUNNY   62  53  72 VRB5      30.18F
STERLING       SUNNY     70  54  56 SE8       30.13F
PEORIA         SUNNY     72  51  47 E9        30.11F
$$

NOTE: "FAIR" INDICATES FEW OR NO CLOUDS BELOW 12,000 FEET WITH NO
SIGNIFICANT WEATHER AND/OR OBSTRUCTIONS TO VISIBILITY. WIND
SPEEDS ARE IN MILES-PER-HOUR.



USA.gov is the U.S. government's official web portal to all federal, state and local government web resources and services.